[Date Prev][Date Next][Thread Prev][Thread Next] - [Date Index][Thread Index][Author Index]
2 Line ISS Keps 1-3
- Subject: [sarex] 2 Line ISS Keps 1-3
- From: "Dave Larsen PhD" <doc@xxxxxxxxxxx>
- Date: Mon, 2 Jan 2006 19:02:15 -0800
ISS
1 25544U 98067A 05365.84525861 .00023212 00000-0 16548-3 0 648
2 25544 051.6448 327.8060 0010881 102.1796 343.8913 15.73635868406799
----
Via the sarex mailing list at AMSAT.ORG courtesy of AMSAT-NA.
To unsubscribe, send "unsubscribe sarex" to Majordomo@amsat.org
AMSAT Home